| time (UTC) | temp F | wind direction | speed MPH | gust MPH | rain 1hr in | rain 24hr in | rain mn in | humidity % | barometer mb |
| 20260507134509 | 45 | 244 | 18.0 | 23.0 | 0.00 | 0.26 | 0.00 | 60 | 1014.0 |
| 20260507134009 | 44 | 255 | 15.0 | 22.0 | 0.00 | 0.26 | 0.00 | 60 | 1013.9 |
| 20260507133508 | 44 | 234 | 15.0 | 21.0 | 0.00 | 0.26 | 0.00 | 60 | 1013.9 |
| 20260507133227 | 43 | 223 | 15.0 | 21.0 | 0.00 | 0.26 | 0.00 | 62 | 1013.9 |
| 20260507132731 | 43 | 219 | 15.0 | 27.0 | 0.00 | 0.26 | 0.00 | 63 | 1013.9 |
| 20260507132002 | 42 | 238 | 18.0 | 27.0 | 0.00 | 0.26 | 0.00 | 63 | 1013.9 |
| 20260507131732 | 42 | 237 | 16.0 | 23.0 | 0.00 | 0.26 | 0.00 | 64 | 1013.7 |
| 20260507131002 | 41 | 254 | 17.0 | 22.0 | 0.00 | 0.26 | 0.00 | 65 | 1013.7 |
| 20260507130503 | 41 | 221 | 16.0 | 22.0 | 0.00 | 0.26 | 0.00 | 66 | 1013.7 |
| 20260507130221 | 40 | 237 | 15.0 | 21.0 | 0.00 | 0.26 | 0.00 | 66 | 1013.6 |
| 20260507125456 | 40 | 248 | 16.0 | 21.0 | 0.00 | 0.26 | 0.00 | 66 | 1013.4 |
| 20260507124457 | 39 | 238 | 17.0 | 22.0 | 0.00 | 0.26 | 0.00 | 67 | 1013.3 |
| 20260507123958 | 38 | 226 | 15.0 | 21.0 | 0.00 | 0.26 | 0.00 | 68 | 1013.4 |
| 20260507123453 | 38 | 237 | 15.0 | 20.0 | 0.00 | 0.26 | 0.00 | 68 | 1013.3 |
| 20260507122451 | 37 | 235 | 16.0 | 20.0 | 0.00 | 0.26 | 0.00 | 69 | 1013.4 |
| 20260507121952 | 37 | 231 | 14.0 | 20.0 | 0.00 | 0.26 | 0.00 | 70 | 1013.2 |
| 20260507121448 | 37 | 227 | 13.0 | 20.0 | 0.00 | 0.26 | 0.00 | 70 | 1013.2 |
| 20260507120948 | 37 | 247 | 14.0 | 18.0 | 0.00 | 0.26 | 0.00 | 71 | 1013.2 |
| 20260507120445 | 37 | 226 | 14.0 | 20.0 | 0.00 | 0.26 | 0.00 | 71 | 1013.3 |
| 20260507115944 | 37 | 243 | 13.0 | 20.0 | 0.00 | 0.26 | 0.00 | 71 | 1013.2 |
| 20260507115445 | 37 | 250 | 13.0 | 16.0 | 0.00 | 0.26 | 0.00 | 71 | 1013.1 |
| 20260507115202 | 37 | 214 | 12.0 | 18.0 | 0.00 | 0.26 | 0.00 | 71 | 1013.2 |
| 20260507114440 | 37 | 227 | 12.0 | 18.0 | 0.00 | 0.26 | 0.00 | 71 | 1013.2 |
| 20260507113937 | 37 | 226 | 13.0 | 18.0 | 0.00 | 0.26 | 0.00 | 72 | 1013.2 |
| 20260507113437 | 37 | 224 | 12.0 | 19.0 | 0.00 | 0.26 | 0.00 | 72 | 1013.1 |
| 20260507113157 | 37 | 223 | 13.0 | 19.0 | 0.00 | 0.26 | 0.00 | 72 | 1013.1 |
| 20260507112436 | 37 | 224 | 13.0 | 19.0 | 0.00 | 0.26 | 0.00 | 73 | 1013.2 |
| 20260507111931 | 36 | 227 | 14.0 | 19.0 | 0.00 | 0.26 | 0.00 | 73 | 1013.3 |
| 20260507111432 | 36 | 216 | 13.0 | 19.0 | 0.00 | 0.26 | 0.00 | 73 | 1013.3 |
| 20260507110932 | 36 | 233 | 15.0 | 20.0 | 0.00 | 0.26 | 0.00 | 74 | 1013.4 |
| 20260507110432 | 36 | 224 | 12.0 | 20.0 | 0.00 | 0.26 | 0.00 | 74 | 1013.4 |
| 20260507105931 | 36 | 234 | 13.0 | 20.0 | 0.00 | 0.26 | 0.00 | 74 | 1013.4 |
| 20260507105431 | 36 | 226 | 12.0 | 20.0 | 0.00 | 0.26 | 0.00 | 75 | 1013.6 |
| 20260507104931 | 36 | 237 | 14.0 | 20.0 | 0.00 | 0.26 | 0.00 | 75 | 1013.7 |
| 20260507104432 | 36 | 228 | 13.0 | 18.0 | 0.00 | 0.26 | 0.00 | 75 | 1013.7 |
| 20260507103933 | 36 | 231 | 13.0 | 22.0 | 0.00 | 0.26 | 0.00 | 75 | 1013.7 |
| 20260507103431 | 36 | 238 | 12.0 | 22.0 | 0.00 | 0.26 | 0.00 | 76 | 1013.9 |
| 20260507102932 | 36 | 234 | 11.0 | 16.0 | 0.00 | 0.26 | 0.00 | 76 | 1013.8 |
| 20260507102431 | 36 | 212 | 11.0 | 17.0 | 0.00 | 0.26 | 0.00 | 76 | 1013.8 |
| 20260507101932 | 36 | 223 | 11.0 | 17.0 | 0.00 | 0.26 | 0.00 | 76 | 1013.7 |
| 20260507101429 | 36 | 219 | 11.0 | 18.0 | 0.00 | 0.26 | 0.00 | 77 | 1013.7 |
| 20260507101201 | 36 | 228 | 12.0 | 18.0 | 0.00 | 0.26 | 0.00 | 77 | 1013.7 |
| 20260507100424 | 36 | 212 | 12.0 | 19.0 | 0.00 | 0.26 | 0.00 | 77 | 1013.8 |
| 20260507100143 | 36 | 226 | 13.0 | 19.0 | 0.00 | 0.26 | 0.00 | 77 | 1013.9 |
| 20260507095413 | 36 | 214 | 13.0 | 20.0 | 0.00 | 0.26 | 0.00 | 77 | 1013.8 |
| 20260507094909 | 36 | 227 | 15.0 | 20.0 | 0.00 | 0.26 | 0.00 | 78 | 1013.9 |
| 20260507094410 | 36 | 230 | 13.0 | 19.0 | 0.00 | 0.26 | 0.00 | 78 | 1013.8 |
| 20260507093909 | 36 | 241 | 14.0 | 18.0 | 0.00 | 0.26 | 0.00 | 79 | 1013.8 |
| 20260507093405 | 36 | 214 | 14.0 | 18.0 | 0.00 | 0.26 | 0.00 | 79 | 1013.8 |
| 20260507092906 | 36 | 234 | 14.0 | 18.0 | 0.00 | 0.26 | 0.00 | 80 | 1013.9 |
| 20260507092405 | 36 | 237 | 12.0 | 18.0 | 0.00 | 0.26 | 0.00 | 80 | 1014.0 |
| 20260507091905 | 36 | 250 | 14.0 | 20.0 | 0.00 | 0.26 | 0.00 | 80 | 1014.0 |
| 20260507091403 | 36 | 227 | 14.0 | 20.0 | 0.00 | 0.26 | 0.00 | 81 | 1013.9 |
| 20260507090903 | 36 | 231 | 15.0 | 19.0 | 0.00 | 0.26 | 0.00 | 82 | 1014.0 |
| 20260507090403 | 35 | 240 | 12.0 | 19.0 | 0.00 | 0.26 | 0.00 | 82 | 1014.0 |
| 20260507085904 | 35 | 228 | 12.0 | 19.0 | 0.00 | 0.26 | 0.00 | 82 | 1014.0 |
| 20260507085402 | 35 | 234 | 12.0 | 18.0 | 0.00 | 0.26 | 0.00 | 82 | 1014.1 |
| 20260507084902 | 35 | 233 | 11.0 | 18.0 | 0.00 | 0.26 | 0.00 | 82 | 1014.1 |
| 20260507084402 | 35 | 237 | 11.0 | 16.0 | 0.00 | 0.26 | 0.00 | 82 | 1014.2 |
| 20260507083902 | 35 | 250 | 10.0 | 16.0 | 0.00 | 0.26 | 0.00 | 82 | 1014.1 |
| 20260507082902 | 35 | 212 | 11.0 | 16.0 | 0.00 | 0.26 | 0.00 | 82 | 1014.2 |
| 20260507082402 | 35 | 240 | 11.0 | 15.0 | 0.00 | 0.26 | 0.00 | 82 | 1014.4 |
| 20260507081903 | 35 | 234 | 11.0 | 16.0 | 0.00 | 0.26 | 0.00 | 82 | 1014.5 |
| 20260507081403 | 35 | 247 | 11.0 | 19.0 | 0.00 | 0.26 | 0.00 | 82 | 1014.5 |
| 20260507080404 | 36 | 237 | 14.0 | 20.0 | 0.00 | 0.26 | 0.00 | 82 | 1014.6 |
| 20260507075902 | 36 | 227 | 14.0 | 21.0 | 0.00 | 0.26 | 0.00 | 82 | 1014.6 |
| 20260507075403 | 36 | 231 | 16.0 | 21.0 | 0.00 | 0.26 | 0.00 | 82 | 1014.6 |
| 20260507074903 | 36 | 214 | 15.0 | 21.0 | 0.00 | 0.26 | 0.00 | 82 | 1014.8 |
| 20260507074403 | 36 | 226 | 14.0 | 21.0 | 0.00 | 0.26 | 0.00 | 82 | 1014.8 |
| 20260507073902 | 36 | 224 | 15.0 | 21.0 | 0.00 | 0.26 | 0.00 | 82 | 1014.8 |
| 20260507073402 | 36 | 237 | 14.0 | 21.0 | 0.00 | 0.26 | 0.00 | 82 | 1014.9 |
| 20260507072903 | 36 | 228 | 15.0 | 21.0 | 0.00 | 0.26 | 0.00 | 82 | 1015.0 |
| 20260507072622 | 36 | 219 | 15.0 | 22.0 | 0.00 | 0.27 | 0.00 | 82 | 1015.0 |
| 20260507071901 | 36 | 237 | 15.0 | 22.0 | 0.00 | 0.27 | 0.00 | 82 | 1015.0 |
| 20260507071404 | 36 | 227 | 16.0 | 24.0 | 0.00 | 0.27 | 0.00 | 81 | 1015.2 |
| 20260507070906 | 36 | 214 | 15.0 | 24.0 | 0.00 | 0.27 | 0.00 | 81 | 1015.2 |
| 20260507070402 | 36 | 200 | 16.0 | 26.0 | 0.00 | 0.27 | 0.00 | 81 | 1015.2 |
| 20260507070131 | 36 | 216 | 17.0 | 26.0 | 0.00 | 0.27 | 0.00 | 81 | 1015.2 |
| 20260507065401 | 36 | 235 | 16.0 | 26.0 | 0.00 | 0.27 | 0.00 | 81 | 1015.3 |
| 20260507064402 | 36 | 228 | 19.0 | 29.0 | 0.00 | 0.27 | 0.00 | 80 | 1015.3 |
| 20260507063903 | 36 | 217 | 18.0 | 26.0 | 0.00 | 0.27 | 0.00 | 80 | 1015.3 |
| 20260507063402 | 36 | 237 | 17.0 | 28.0 | 0.00 | 0.27 | 0.00 | 80 | 1015.3 |
| 20260507062902 | 36 | 221 | 19.0 | 28.0 | 0.00 | 0.27 | 0.00 | 80 | 1015.4 |
| 20260507062402 | 36 | 227 | 18.0 | 27.0 | 0.00 | 0.27 | 0.00 | 80 | 1015.4 |
| 20260507061903 | 36 | 217 | 18.0 | 24.0 | 0.00 | 0.27 | 0.00 | 80 | 1015.4 |
| 20260507061627 | 36 | 214 | 16.0 | 22.0 | 0.00 | 0.27 | 0.00 | 80 | 1015.4 |
| 20260507061127 | 35 | 235 | 15.0 | 22.0 | 0.00 | 0.27 | 0.00 | 80 | 1015.4 |
| 20260507060404 | 35 | 202 | 15.0 | 21.0 | 0.00 | 0.27 | 0.00 | 80 | 1015.5 |
| 20260507055903 | 35 | 189 | 13.0 | 20.0 | 0.00 | 0.27 | 0.27 | 80 | 1015.5 |
| 20260507055403 | 35 | 203 | 13.0 | 20.0 | 0.00 | 0.27 | 0.27 | 80 | 1015.6 |
| 20260507055123 | 35 | 216 | 12.0 | 19.0 | 0.00 | 0.27 | 0.27 | 80 | 1015.5 |
| 20260507054404 | 35 | 197 | 11.0 | 18.0 | 0.00 | 0.27 | 0.27 | 80 | 1015.6 |
| 20260507053903 | 35 | 186 | 11.0 | 20.0 | 0.00 | 0.27 | 0.27 | 80 | 1015.7 |
| 20260507053403 | 35 | 221 | 12.0 | 20.0 | 0.00 | 0.27 | 0.27 | 80 | 1015.7 |
| 20260507052903 | 35 | 227 | 12.0 | 20.0 | 0.00 | 0.27 | 0.27 | 80 | 1015.8 |
| 20260507052400 | 35 | 223 | 13.0 | 20.0 | 0.00 | 0.27 | 0.27 | 81 | 1016.0 |
| 20260507051858 | 35 | 230 | 14.0 | 17.0 | 0.00 | 0.27 | 0.27 | 81 | 1016.1 |
| 20260507051357 | 35 | 234 | 10.0 | 16.0 | 0.00 | 0.27 | 0.27 | 81 | 1016.1 |
| 20260507050857 | 35 | 204 | 11.0 | 17.0 | 0.00 | 0.27 | 0.27 | 80 | 1016.2 |
| 20260507050356 | 35 | 233 | 12.0 | 18.0 | 0.00 | 0.27 | 0.27 | 80 | 1016.2 |
| 20260507045856 | 35 | 235 | 11.0 | 18.0 | 0.00 | 0.27 | 0.27 | 80 | 1016.3 |
| 20260507045356 | 35 | 221 | 12.0 | 17.0 | 0.00 | 0.27 | 0.27 | 80 | 1016.4 |
| 20260507045121 | 35 | 203 | 11.0 | 19.0 | 0.00 | 0.27 | 0.27 | 80 | 1016.4 |
| 20260507044357 | 36 | 204 | 11.0 | 19.0 | 0.00 | 0.27 | 0.27 | 80 | 1016.5 |
| 20260507043857 | 36 | 223 | 10.0 | 16.0 | 0.00 | 0.27 | 0.27 | 80 | 1016.5 |
| 20260507043359 | 36 | 210 | 11.0 | 19.0 | 0.00 | 0.27 | 0.27 | 80 | 1016.8 |
| 20260507042857 | 36 | 216 | 10.0 | 19.0 | 0.00 | 0.27 | 0.27 | 79 | 1016.8 |
| 20260507041855 | 36 | 224 | 10.0 | 15.0 | 0.00 | 0.27 | 0.27 | 78 | 1016.8 |
| 20260507041356 | 36 | 220 | 9.0 | 16.0 | 0.00 | 0.27 | 0.27 | 78 | 1016.9 |
| 20260507040856 | 36 | 223 | 11.0 | 16.0 | 0.00 | 0.27 | 0.27 | 77 | 1016.9 |
| 20260507040356 | 36 | 223 | 11.0 | 15.0 | 0.00 | 0.27 | 0.27 | 76 | 1017.0 |
| 20260507035855 | 37 | 217 | 11.0 | 15.0 | 0.00 | 0.27 | 0.27 | 76 | 1017.1 |
| 20260507035355 | 37 | 214 | 8.0 | 15.0 | 0.00 | 0.27 | 0.27 | 75 | 1017.1 |
| 20260507034855 | 37 | 219 | 10.0 | 14.0 | 0.00 | 0.28 | 0.27 | 75 | 1017.1 |
| 20260507034354 | 37 | 214 | 9.0 | 13.0 | 0.00 | 0.28 | 0.27 | 74 | 1017.2 |
| 20260507033855 | 37 | 228 | 9.0 | 12.0 | 0.00 | 0.28 | 0.27 | 74 | 1017.2 |
| 20260507033354 | 38 | 228 | 9.0 | 13.0 | 0.00 | 0.28 | 0.27 | 73 | 1017.1 |
| 20260507032854 | 38 | 231 | 10.0 | 14.0 | 0.00 | 0.28 | 0.27 | 72 | 1017.2 |
| 20260507032355 | 38 | 228 | 9.0 | 14.0 | 0.00 | 0.28 | 0.27 | 72 | 1017.2 |
| 20260507031855 | 38 | 228 | 10.0 | 14.0 | 0.00 | 0.28 | 0.27 | 71 | 1017.3 |
| 20260507031353 | 38 | 240 | 10.0 | 14.0 | 0.00 | 0.28 | 0.27 | 70 | 1017.5 |
| 20260507030854 | 39 | 234 | 10.0 | 13.0 | 0.00 | 0.28 | 0.27 | 70 | 1017.3 |
| 20260507030355 | 39 | 227 | 9.0 | 11.0 | 0.00 | 0.28 | 0.27 | 69 | 1017.3 |
| 20260507025854 | 39 | 235 | 8.0 | 12.0 | 0.00 | 0.28 | 0.27 | 69 | 1017.3 |
| 20260507025354 | 40 | 223 | 9.0 | 12.0 | 0.00 | 0.28 | 0.27 | 68 | 1017.3 |
| 20260507024853 | 40 | 240 | 9.0 | 11.0 | 0.00 | 0.28 | 0.27 | 67 | 1017.3 |
| 20260507024626 | 40 | 247 | 8.0 | 12.0 | 0.00 | 0.28 | 0.27 | 67 | 1017.2 |
| 20260507023854 | 40 | 243 | 8.0 | 12.0 | 0.00 | 0.28 | 0.27 | 66 | 1017.2 |
| 20260507023355 | 41 | 238 | 8.0 | 12.0 | 0.00 | 0.28 | 0.27 | 66 | 1017.1 |
| 20260507023117 | 41 | 224 | 7.0 | 12.0 | 0.00 | 0.28 | 0.27 | 65 | 1017.1 |
| 20260507022353 | 41 | 243 | 7.0 | 12.0 | 0.00 | 0.28 | 0.27 | 65 | 1017.1 |
| 20260507021854 | 42 | 244 | 8.0 | 11.0 | 0.00 | 0.28 | 0.27 | 65 | 1017.0 |
| 20260507021352 | 42 | 245 | 7.0 | 11.0 | 0.00 | 0.28 | 0.27 | 64 | 1017.0 |
| 20260507020854 | 42 | 226 | 7.0 | 10.0 | 0.00 | 0.28 | 0.27 | 64 | 1016.9 |
| 20260507020353 | 43 | 224 | 6.0 | 11.0 | 0.00 | 0.28 | 0.27 | 63 | 1016.9 |
| 20260507015853 | 43 | 250 | 6.0 | 11.0 | 0.00 | 0.28 | 0.27 | 62 | 1016.8 |
| 20260507015614 | 43 | 224 | 6.0 | 10.0 | 0.00 | 0.28 | 0.27 | 62 | 1016.9 |
| 20260507014853 | 43 | 220 | 5.0 | 10.0 | 0.00 | 0.28 | 0.27 | 61 | 1016.9 |
| 20260507014615 | 44 | 207 | 7.0 | 10.0 | 0.00 | 0.28 | 0.27 | 61 | 1016.9 |
| 20260507013851 | 44 | 212 | 6.0 | 11.0 | 0.00 | 0.28 | 0.27 | 61 | 1016.9 |
| 20260507013352 | 44 | 217 | 7.0 | 11.0 | 0.00 | 0.28 | 0.27 | 60 | 1016.8 |
| 20260507012851 | 44 | 200 | 5.0 | 12.0 | 0.00 | 0.28 | 0.27 | 61 | 1016.9 |
| 20260507012617 | 44 | 230 | 6.0 | 14.0 | 0.00 | 0.28 | 0.27 | 61 | 1016.9 |
| 20260507011853 | 44 | 217 | 8.0 | 15.0 | 0.00 | 0.28 | 0.27 | 60 | 1016.9 |
| 20260507011353 | 44 | 230 | 10.0 | 15.0 | 0.00 | 0.28 | 0.27 | 59 | 1016.9 |
| 20260507010851 | 44 | 231 | 8.0 | 10.0 | 0.00 | 0.29 | 0.27 | 57 | 1016.9 |
| 20260507010614 | 45 | 224 | 5.0 | 10.0 | 0.00 | 0.29 | 0.27 | 57 | 1016.8 |
| 20260507005853 | 45 | 247 | 5.0 | 10.0 | 0.00 | 0.29 | 0.27 | 57 | 1016.9 |
| 20260507005351 | 45 | 261 | 4.0 | 12.0 | 0.00 | 0.29 | 0.27 | 57 | 1017.0 |
| 20260507004850 | 45 | 240 | 6.0 | 12.0 | 0.00 | 0.29 | 0.27 | 55 | 1016.9 |
| 20260507004350 | 46 | 255 | 4.0 | 10.0 | 0.00 | 0.30 | 0.27 | 54 | 1017.0 |
| 20260507003851 | 46 | 310 | 6.0 | 12.0 | 0.00 | 0.30 | 0.27 | 54 | 1017.0 |
| 20260507003350 | 46 | 220 | 7.0 | 12.0 | 0.00 | 0.30 | 0.27 | 54 | 1017.1 |
| 20260507002850 | 46 | 233 | 8.0 | 12.0 | 0.00 | 0.31 | 0.27 | 55 | 1017.0 |
| 20260507002350 | 47 | 251 | 7.0 | 16.0 | 0.00 | 0.31 | 0.27 | 52 | 1017.1 |
| 20260507001851 | 47 | 252 | 10.0 | 16.0 | 0.00 | 0.31 | 0.27 | 51 | 1017.0 |
| 20260507001351 | 47 | 240 | 7.0 | 15.0 | 0.00 | 0.31 | 0.27 | 51 | 1017.1 |
| 20260507000851 | 47 | 235 | 11.0 | 15.0 | 0.00 | 0.32 | 0.27 | 52 | 1017.1 |
| 20260507000350 | 47 | 240 | 9.0 | 17.0 | 0.00 | 0.32 | 0.27 | 50 | 1017.2 |
| 20260506235851 | 48 | 259 | 12.0 | 17.0 | 0.00 | 0.32 | 0.27 | 51 | 1017.2 |
| 20260506235349 | 47 | 234 | 9.0 | 17.0 | 0.00 | 0.33 | 0.27 | 49 | 1017.2 |
| 20260506234851 | 48 | 227 | 7.0 | 14.0 | 0.00 | 0.33 | 0.27 | 47 | 1017.2 |
| 20260506234350 | 49 | 238 | 9.0 | 14.0 | 0.00 | 0.33 | 0.27 | 51 | 1017.3 |
| 20260506233849 | 49 | 275 | 5.0 | 13.0 | 0.00 | 0.33 | 0.27 | 51 | 1017.2 |
| 20260506233350 | 49 | 258 | 7.0 | 21.0 | 0.00 | 0.33 | 0.27 | 50 | 1017.3 |
| 20260506232850 | 49 | 243 | 14.0 | 21.0 | 0.00 | 0.33 | 0.27 | 50 | 1017.2 |
| 20260506232349 | 49 | 259 | 9.0 | 16.0 | 0.00 | 0.34 | 0.27 | 51 | 1017.2 |
| 20260506231850 | 49 | 220 | 9.0 | 16.0 | 0.00 | 0.34 | 0.27 | 51 | 1017.1 |
| 20260506231350 | 47 | 207 | 8.0 | 16.0 | 0.00 | 0.34 | 0.27 | 51 | 1017.1 |
| 20260506230850 | 48 | 210 | 6.0 | 16.0 | 0.00 | 0.34 | 0.27 | 50 | 1017.1 |
| 20260506230348 | 48 | 237 | 8.0 | 13.0 | 0.00 | 0.34 | 0.27 | 53 | 1017.2 |
| 20260506225847 | 47 | 224 | 5.0 | 12.0 | 0.00 | 0.34 | 0.27 | 52 | 1017.3 |
| 20260506225349 | 47 | 323 | 6.0 | 12.0 | 0.00 | 0.34 | 0.27 | 54 | 1017.3 |
| 20260506225112 | 47 | 243 | 9.0 | 13.0 | 0.00 | 0.34 | 0.27 | 53 | 1017.3 |
| 20260506224347 | 47 | 266 | 6.0 | 13.0 | 0.00 | 0.34 | 0.27 | 54 | 1017.3 |
| 20260506223848 | 48 | 254 | 8.0 | 13.0 | 0.00 | 0.34 | 0.27 | 54 | 1017.3 |
| 20260506223348 | 48 | 231 | 6.0 | 13.0 | 0.00 | 0.34 | 0.27 | 54 | 1017.3 |
| 20260506222847 | 47 | 272 | 4.0 | 11.0 | 0.00 | 0.34 | 0.27 | 54 | 1017.3 |
| 20260506222348 | 47 | 278 | 6.0 | 11.0 | 0.00 | 0.34 | 0.27 | 53 | 1017.5 |
| 20260506221850 | 47 | 309 | 5.0 | 7.0 | 0.00 | 0.34 | 0.27 | 55 | 1017.5 |
| 20260506221347 | 47 | 296 | 3.0 | 9.0 | 0.00 | 0.34 | 0.27 | 53 | 1017.6 |
| 20260506220850 | 47 | 281 | 5.0 | 10.0 | 0.00 | 0.34 | 0.27 | 55 | 1017.7 |
| 20260506220346 | 48 | 265 | 6.0 | 10.0 | 0.00 | 0.34 | 0.27 | 53 | 1017.6 |
| 20260506220110 | 47 | 266 | 3.0 | 9.0 | 0.00 | 0.34 | 0.27 | 53 | 1017.6 |
| 20260506215347 | 47 | 251 | 3.0 | 10.0 | 0.00 | 0.35 | 0.27 | 54 | 1017.6 |
| 20260506214846 | 47 | 227 | 6.0 | 11.0 | 0.00 | 0.35 | 0.27 | 54 | 1017.7 |
| 20260506214611 | 47 | 281 | 4.0 | 11.0 | 0.00 | 0.35 | 0.27 | 56 | 1017.7 |
| 20260506213844 | 46 | 285 | 3.0 | 7.0 | 0.00 | 0.35 | 0.27 | 56 | 1017.8 |
| 20260506213557 | 46 | 279 | 4.0 | 7.0 | 0.00 | 0.35 | 0.27 | 55 | 1017.8 |
| 20260506212841 | 45 | 296 | 1.0 | 7.0 | 0.00 | 0.36 | 0.27 | 53 | 1017.8 |
| 20260506212337 | 46 | 289 | 5.0 | 9.0 | 0.00 | 0.36 | 0.27 | 57 | 1017.9 |
| 20260506211834 | 45 | 295 | 6.0 | 9.0 | 0.00 | 0.36 | 0.27 | 56 | 1017.9 |
| 20260506210831 | 46 | 288 | 4.0 | 11.0 | 0.00 | 0.37 | 0.27 | 56 | 1018.0 |
| 20260506210332 | 45 | 289 | 5.0 | 11.0 | 0.00 | 0.38 | 0.27 | 56 | 1018.1 |
| 20260506205832 | 45 | 185 | 3.0 | 6.0 | 0.00 | 0.38 | 0.27 | 55 | 1018.0 |
| 20260506205600 | 45 | 288 | 2.0 | 6.0 | 0.00 | 0.38 | 0.27 | 60 | 1018.3 |
| 20260506204832 | 44 | 292 | 2.0 | 7.0 | 0.00 | 0.39 | 0.27 | 54 | 1018.3 |
| 20260506204332 | 45 | 213 | 3.0 | 7.0 | 0.00 | 0.39 | 0.27 | 58 | 1018.3 |
| 20260506204059 | 44 | 324 | 0.0 | 7.0 | 0.00 | 0.39 | 0.27 | 56 | 1018.3 |
| 20260506203329 | 45 | 327 | 3.0 | 7.0 | 0.00 | 0.40 | 0.27 | 56 | 1018.4 |
| 20260506202826 | 45 | 306 | 2.0 | 5.0 | 0.00 | 0.40 | 0.27 | 58 | 1018.5 |
| 20260506202325 | 45 | 8 | 2.0 | 4.0 | 0.00 | 0.41 | 0.27 | 56 | 1018.6 |
| 20260506201826 | 45 | 161 | 1.0 | 9.0 | 0.00 | 0.41 | 0.27 | 57 | 1018.6 |
| 20260506201323 | 45 | 158 | 5.0 | 9.0 | 0.00 | 0.42 | 0.27 | 59 | 1018.7 |
| 20260506200823 | 45 | 123 | 3.0 | 5.0 | 0.00 | 0.42 | 0.27 | 58 | 1018.7 |
| 20260506200319 | 45 | 152 | 2.0 | 4.0 | 0.00 | 0.42 | 0.27 | 58 | 1018.7 |
| 20260506195312 | 46 | 295 | 0.0 | 9.0 | 0.00 | 0.43 | 0.27 | 58 | 1018.8 |
| 20260506194811 | 46 | 327 | 3.0 | 9.0 | 0.00 | 0.43 | 0.27 | 60 | 1018.8 |
| 20260506194311 | 45 | 310 | 5.0 | 7.0 | 0.00 | 0.43 | 0.27 | 63 | 1018.9 |
| 20260506193808 | 44 | 250 | 2.0 | 5.0 | 0.00 | 0.44 | 0.27 | 62 | 1018.8 |
| 20260506193526 | 44 | 345 | 2.0 | 5.0 | 0.00 | 0.44 | 0.27 | 61 | 1018.8 |
| 20260506192806 | 43 | 292 | 3.0 | 6.0 | 0.00 | 0.44 | 0.27 | 60 | 1018.8 |
| 20260506192306 | 44 | 4 | 3.0 | 10.0 | 0.00 | 0.44 | 0.27 | 62 | 1018.8 |
| 20260506191805 | 44 | 38 | 4.0 | 10.0 | 0.00 | 0.45 | 0.27 | 62 | 1018.8 |
| 20260506191523 | 43 | 44 | 1.0 | 7.0 | 0.00 | 0.45 | 0.27 | 60 | 1018.9 |
| 20260506191025 | 43 | 8 | 3.0 | 7.0 | 0.00 | 0.46 | 0.27 | 62 | 1018.9 |
| 20260506185804 | 43 | 61 | 5.0 | 9.0 | 0.00 | 0.46 | 0.27 | 63 | 1018.9 |
| 20260506185306 | 43 | 52 | 2.0 | 9.0 | 0.00 | 0.46 | 0.27 | 64 | 1018.9 |
| 20260506184804 | 43 | 0 | 4.0 | 7.0 | 0.01 | 0.47 | 0.27 | 64 | 1018.9 |
| 20260506184302 | 43 | 47 | 1.0 | 7.0 | 0.01 | 0.47 | 0.27 | 62 | 1018.9 |
| 20260506183803 | 43 | 49 | 3.0 | 11.0 | 0.01 | 0.47 | 0.27 | 58 | 1018.9 |
| 20260506183303 | 43 | 14 | 4.0 | 11.0 | 0.02 | 0.47 | 0.27 | 60 | 1019.1 |
| 20260506182802 | 44 | 354 | 4.0 | 9.0 | 0.02 | 0.47 | 0.27 | 62 | 1018.9 |
| 20260506182306 | 43 | 323 | 5.0 | 12.0 | 0.03 | 0.48 | 0.27 | 63 | 1018.9 |
| 20260506181804 | 43 | 52 | 8.0 | 12.0 | 0.03 | 0.48 | 0.27 | 63 | 1019.1 |
| 20260506181305 | 42 | 1 | 4.0 | 11.0 | 0.04 | 0.48 | 0.27 | 60 | 1018.9 |
| 20260506180803 | 43 | 45 | 7.0 | 11.0 | 0.04 | 0.48 | 0.27 | 64 | 1019.1 |
| 20260506180303 | 43 | 55 | 4.0 | 10.0 | 0.05 | 0.48 | 0.27 | 62 | 1019.1 |
| 20260506175803 | 43 | 4 | 4.0 | 10.0 | 0.06 | 0.49 | 0.27 | 66 | 1019.1 |
| 20260506175305 | 43 | 0 | 6.0 | 11.0 | 0.07 | 0.49 | 0.27 | 67 | 1019.1 |
| 20260506174804 | 42 | 31 | 5.0 | 11.0 | 0.07 | 0.48 | 0.26 | 65 | 1019.2 |
| 20260506174527 | 42 | 38 | 4.0 | 11.0 | 0.08 | 0.48 | 0.26 | 65 | 1019.2 |
| 20260506173803 | 42 | 41 | 7.0 | 11.0 | 0.09 | 0.48 | 0.26 | 65 | 1019.3 |
| 20260506173302 | 42 | 89 | 7.0 | 13.0 | 0.10 | 0.47 | 0.25 | 71 | 1019.2 |
| 20260506172803 | 42 | 55 | 8.0 | 13.0 | 0.11 | 0.47 | 0.25 | 68 | 1019.1 |
| 20260506172306 | 41 | 30 | 5.0 | 13.0 | 0.11 | 0.46 | 0.24 | 69 | 1019.1 |
| 20260506171801 | 41 | 41 | 7.0 | 13.0 | 0.12 | 0.47 | 0.24 | 70 | 1019.1 |
| 20260506171301 | 41 | 54 | 10.0 | 15.0 | 0.12 | 0.46 | 0.23 | 71 | 1018.9 |
| 20260506170252 | 41 | 31 | 8.0 | 14.0 | 0.14 | 0.45 | 0.22 | 77 | 1018.9 |
| 20260506165752 | 40 | 35 | 4.0 | 15.0 | 0.14 | 0.44 | 0.21 | 74 | 1018.9 |
| 20260506165249 | 40 | 7 | 10.0 | 15.0 | 0.13 | 0.43 | 0.20 | 76 | 1019.2 |
| 20260506165012 | 40 | 52 | 7.0 | 16.0 | 0.13 | 0.42 | 0.19 | 78 | 1019.1 |
| 20260506164246 | 40 | 38 | 11.0 | 16.0 | 0.12 | 0.41 | 0.18 | 77 | 1019.1 |
| 20260506164007 | 40 | 32 | 7.0 | 16.0 | 0.11 | 0.41 | 0.17 | 80 | 1018.9 |
| 20260506163510 | 39 | 49 | 9.0 | 16.0 | 0.10 | 0.39 | 0.15 | 82 | 1018.9 |
| 20260506162956 | 39 | 34 | 9.0 | 13.0 | 0.09 | 0.39 | 0.14 | 86 | 1018.8 |
| 20260506162244 | 38 | 66 | 8.0 | 13.0 | 0.08 | 0.39 | 0.13 | 87 | 1018.8 |
| 20260506161739 | 38 | 49 | 6.0 | 12.0 | 0.08 | 0.38 | 0.12 | 89 | 1018.8 |
| 20260506161241 | 38 | 31 | 7.0 | 12.0 | 0.07 | 0.37 | 0.11 | 90 | 1018.8 |
| 20260506160739 | 39 | 18 | 6.0 | 11.0 | 0.06 | 0.36 | 0.10 | 92 | 1018.8 |
| 20260506160241 | 38 | 25 | 7.0 | 10.0 | 0.05 | 0.35 | 0.08 | 92 | 1018.7 |
| 20260506155738 | 37 | 8 | 6.0 | 10.0 | 0.04 | 0.34 | 0.07 | 92 | 1018.7 |
| 20260506155241 | 37 | 31 | 5.0 | 10.0 | 0.04 | 0.35 | 0.07 | 92 | 1018.8 |
| 20260506154738 | 37 | 10 | 6.0 | 10.0 | 0.03 | 0.34 | 0.06 | 93 | 1018.7 |
| 20260506154241 | 36 | 4 | 4.0 | 9.0 | 0.03 | 0.34 | 0.06 | 93 | 1018.7 |
| 20260506153740 | 36 | 32 | 6.0 | 11.0 | 0.04 | 0.35 | 0.06 | 93 | 1018.7 |
| 20260506153240 | 35 | 45 | 5.0 | 11.0 | 0.03 | 0.34 | 0.05 | 93 | 1018.6 |
| 20260506152739 | 35 | 35 | 5.0 | 9.0 | 0.03 | 0.35 | 0.05 | 93 | 1018.6 |
| 20260506152240 | 35 | 21 | 6.0 | 9.0 | 0.03 | 0.35 | 0.05 | 93 | 1018.7 |
| 20260506151737 | 35 | 45 | 5.0 | 9.0 | 0.02 | 0.35 | 0.04 | 93 | 1018.6 |
| 20260506151239 | 35 | 38 | 4.0 | 7.0 | 0.02 | 0.35 | 0.04 | 93 | 1018.5 |
| 20260506150737 | 35 | 49 | 4.0 | 7.0 | 0.02 | 0.36 | 0.04 | 93 | 1018.5 |
| 20260506150239 | 35 | 32 | 4.0 | 7.0 | 0.01 | 0.35 | 0.03 | 93 | 1018.4 |
| 20260506145240 | 35 | 37 | 4.0 | 10.0 | 0.01 | 0.36 | 0.03 | 93 | 1018.3 |
| 20260506144240 | 35 | 354 | 5.0 | 11.0 | 0.02 | 0.35 | 0.03 | 94 | 1018.3 |
| 20260506143738 | 34 | 0 | 5.0 | 12.0 | 0.01 | 0.35 | 0.02 | 94 | 1018.3 |
| 20260506143238 | 34 | 344 | 8.0 | 12.0 | 0.01 | 0.36 | 0.02 | 93 | 1018.1 |
| 20260506142738 | 34 | 0 | 7.0 | 11.0 | 0.01 | 0.36 | 0.02 | 93 | 1018.1 |
| 20260506141240 | 34 | 10 | 6.0 | 12.0 | 0.01 | 0.36 | 0.02 | 93 | 1017.8 |
| 20260506140737 | 34 | 32 | 7.0 | 12.0 | 0.01 | 0.36 | 0.02 | 93 | 1017.6 |
| 20260506140232 | 33 | 34 | 9.0 | 12.0 | 0.01 | 0.37 | 0.02 | 93 | 1017.6 |
| 20260506135956 | 33 | 37 | 7.0 | 12.0 | 0.01 | 0.37 | 0.02 | 93 | 1017.7 |
| 20260506135231 | 33 | 37 | 6.0 | 9.0 | 0.01 | 0.37 | 0.02 | 93 | 1017.8 |
| 20260506134732 | 33 | 30 | 4.0 | 7.0 | 0.01 | 0.36 | 0.02 | 93 | 1017.9 |